Info Jadwal Kapal Pelni Leuser Terbaru 2019

Jadwal Dan Harga Tiket Kapal Pelni Leuser – Hay sobat berjumpa lagi dengan kami hargaelektro.Info yang masih setia menemani anda dengan berbagai info tentang harga. Nah sebelumnya kami sudah mengulas tentang harga tiket dan jadwal kapal pelni bukit raya. Dan kali ini kami akan mencoba untuk mengulas tentang jadwal kapal pelni leuser terbaru.

Kapal pelni leuser merupakan salah satu kapal yang di punyai oleh PT Pelni yang mempunyai rute LABUAN BAJO – SAPE [BIMA] – BENOA/DENPASAR – TANJUNG PERAK [SURABAYA] – MAKASSAR – BAU-BAU – WANCI – NAMROLE – AMBON – BANDA NAIRA – SAUMLAKI – LARAT – TUAL – DOBO – TIMIKA – AGATS – MERAUKE. Nah jika anda ingin bepergian keluar pulau yang kebetulan daerah yang anda tuju itu ada yang sama dengan rute diatas anda bisa msncoba bagaimana rasanya perjalanan menggunakan jalur laut dengan kapal leuser.

Kapal pelni leuser ini juga merupakan kapal yang sangat baik untuk mengantarkan anda ketempat tujuan, selain itu kapal pelni leuser juga memiliki banyak fasilitas yang bisa anda gunakan di dalam kapal selama perjalanan seperti kamar mandi bersih, makanan, minum, kamar mandi bersih, serta pemandangan laut yang sangat indah, apalagi kalau kita berada di emperanya kapal itu pasti kita akan merasakan angin yang sangat sejuk serta pemandangan biru laut yang mempesona.

Untuk harga tiket kapal pelni leuser ini juga masih tergolong ekonomis, jadinya bagi siapa saja bisa pergi menggunakan kapal pelni leuser ini tidak terlalu menguras kantong. Dan Untuk memiliki tiket kapal leuser tersebut sekarang bisa lebih gampang, karena sekarang tiket kapal laut bisa kita beli di online terutama di situs resmi kapal pelni aja. Nah setelah anda faham dengan tiket kapal sekarang anda tinggal mencari tau tentang jadwal keberangkatan kapal leuser yang seperti di bawah ini.

harga tiket kapal pelni leuser murah

Jadwal Kapal Pelni Leuser Terbaru Bulan Ini

BERANGKAT DARI PELABUHANTIBA DI PELABUHANWAKTU KEBERANGKATAN KAPAL PELNI LEUSERWAKTU TIBA KAPAL PELNI LEUSER
MERAUKEAGATS27-11-2018 | 04:0028-11-2018 | 17:00
AGATSTIMIKA28-11-2018 | 21:0029-11-2018 | 08:00
TIMIKADOBO29-11-2018 | 10:0030-11-2018 | 03:00
DOBOTUAL30-11-2018 | 05:0030-11-2018 | 15:00
TUALLARAT30-11-2018 | 18:0001-12-2018 | 06:00
LARATSAUMLAKI01-12-2018 | 07:0001-12-2018 | 18:00
SAUMLAKIBANDA NAIRA01-12-2018 | 20:0002-12-2018 | 19:00
BANDA NAIRAAMBON02-12-2018 | 20:0003-12-2018 | 08:00
AMBONNAMROLE03-12-2018 | 11:0003-12-2018 | 21:00
NAMROLEWANCI03-12-2018 | 22:0004-12-2018 | 18:00
WANCIBAU-BAU04-12-2018 | 19:0005-12-2018 | 02:00
BAU-BAUMAKASSAR05-12-2018 | 04:0006-12-2018 | 03:00
MAKASSARLABUAN BAJO06-12-2018 | 07:0007-12-2018 | 02:00
LABUAN BAJOSAPE [BIMA]07-12-2018 | 03:0007-12-2018 | 11:00
SAPE [BIMA]BENOA/DENPASAR07-12-2018 | 12:0008-12-2018 | 11:00
BENOA/DENPASARTANJUNG PERAK [SURABAYA]08-12-2018 | 12:0009-12-2018 | 14:00
TANJUNG PERAK [SURABAYA]BENOA/DENPASAR11-12-2018 | 08:0012-12-2018 | 12:00
BENOA/DENPASARSAPE [BIMA]12-12-2018 | 14:0013-12-2018 | 13:00
SAPE [BIMA]LABUAN BAJO13-12-2018 | 15:0013-12-2018 | 23:00
LABUAN BAJOMAKASSAR13-12-2018 | 23:5914-12-2018 | 19:00
MAKASSARBAU-BAU14-12-2018 | 23:0015-12-2018 | 21:00
BAU-BAUWANCI15-12-2018 | 23:0016-12-2018 | 08:00
WANCINAMROLE16-12-2018 | 10:0017-12-2018 | 06:00
NAMROLEAMBON17-12-2018 | 07:0017-12-2018 | 17:00
AMBONBANDA NAIRA17-12-2018 | 21:0018-12-2018 | 09:00
BANDA NAIRASAUMLAKI18-12-2018 | 11:0019-12-2018 | 10:00
SAUMLAKILARAT19-12-2018 | 12:0020-12-2018 | 00:01
LARATTUAL20-12-2018 | 01:0020-12-2018 | 13:00
TUALDOBO20-12-2018 | 16:0021-12-2018 | 02:00
DOBOTIMIKA21-12-2018 | 04:0021-12-2018 | 22:00
TIMIKAAGATS21-12-2018 | 23:5922-12-2018 | 10:00
AGATSMERAUKE22-12-2018 | 11:0024-12-2018 | 03:00
MERAUKEAGATS26-12-2018 | 03:0027-12-2018 | 16:00
AGATSTIMIKA27-12-2018 | 17:0028-12-2018 | 04:00
TIMIKADOBO28-12-2018 | 06:0028-12-2018 | 23:00
DOBOTUAL29-12-2018 | 01:0029-12-2018 | 11:00
TUALLARAT29-12-2018 | 14:0030-12-2018 | 02:00
LARATSAUMLAKI30-12-2018 | 03:0030-12-2018 | 14:00
SAUMLAKIBANDA NAIRA30-12-2018 | 16:0031-12-2018 | 15:00
BANDA NAIRAAMBON31-12-2018 | 16:0001-01-2019 | 04:00
AMBONNAMROLE01-01-2019 | 07:0001-01-2019 | 17:00
NAMROLEWANCI01-01-2019 | 18:0002-01-2019 | 14:00
WANCIBAU-BAU02-01-2019 | 15:0002-01-2019 | 22:00
BAU-BAUMAKASSAR02-01-2019 | 23:5903-01-2019 | 23:00
MAKASSARLABUAN BAJO04-01-2019 | 03:0004-01-2019 | 22:00
LABUAN BAJOSAPE [BIMA]04-01-2019 | 23:0005-01-2019 | 07:00
SAPE [BIMA]BENOA/DENPASAR05-01-2019 | 08:0006-01-2019 | 07:00
BENOA/DENPASARTANJUNG PERAK [SURABAYA]06-01-2019 | 08:0007-01-2019 | 10:00

 Info jadwal kapal pelni leuser diatas merupakan sebuah jadwal terbaru yang lengkap dengan tanggal, bulan, tahun dan waktu. Namun meskipun perlu diingat juga bahwa jadwal kapal leuser diatas bisa berubah sewaktu-waktu tergantung dari maskapai kapal pelni. Nah disini kami juga akan memberikan info kepada anda tentang harga tiket kapal leuser.

jadwal keberangkatan kapal leuser

Harga Tiket Kapal Pelni KM Leuser

  • Harga Tiket Pelni KM Leuser Ambon – Amahai : Rp62.000 Rp50.000 Rp20.500
  • Harga Tiket Pelni KM Leuser Banda – Saumlaki : Rp184.500 Rp141.000 Rp27.500
  • Harga Tiket Pelni KM Leuser Saumlaki – Larat : Rp76.500 Rp59.500 Rp13.500
  • Harga Tiket Pelni KM Leuser Larat – Tual : Rp82.000 Rp63.500 Rp15.000
  • Harga Tiket Pelni KM Leuser Tual – Dobo : Rp70.500 Rp55.500 Rp15.000
  • Harga Tiket Pelni KM Leuser Dobo – Timika : Rp139.000 Rp107.000 Rp22.000
  • Harga Tiket Pelni KM Leuser Timika – Agats : Rp103.000 Rp79.500 Rp18.000
  • Harga Tiket Pelni KM Leuser Merauke – Agats : Rp223.000 Rp170.000 Rp32.500
  • Harga Tiket Pelni KM Leuser Agats – Timika : Rp101.000 Rp77.500 Rp16.000
  • Harga Tiket Pelni KM Leuser Timika – Dobo : Rp138.000 Rp106.000 Rp21.000
  • Harga Tiket Pelni KM Leuser Tual – Larat : Rp83.500 Rp65.000 Rp16.500
  • Harga Tiket Pelni KM Leuser Larat – Saumlaki : Rp77.000 Rp60.000 Rp14.000
  • Harga Tiket Pelni KM Leuser Banda – Amahai : Rp65.500 Rp51.500 Rp15.000
  • Harga Tiket Pelni KM Leuser Amahai – Ambon : Rp53.000 Rp41.000 Rp11.500
  • Harga Tiket Pelni KM Leuser Ambon – Wanci : Rp203.000 Rp156.500 Rp35.000
  • Harga Tiket Pelni KM Leuser Bau-Bau – Makassar : Rp154.000 Rp118.000 Rp24.000
  • Harga Tiket Pelni KM Leuser Makassar – Bima : Rp195.000 Rp151.000 Rp35.000

Nah itulah sedikit info tentang harga tiket kapal leuser, dan kapal leuser ini hanya menyediakan tiket ekonomi saja, namun harga tiket kapal pelni ini dibedakan berdasarkan kelompok usia tertentu yang terbagi menjadi 3 golongan yaitu bayi, anak, dan dewasa. Mungkin sekian dulu ulasan kami tentang jadwal dan harga tiket kapal leuser, semoga dengan adanya info ini bisa bermanfaat bagi kita semua.